Weather History for Watertown, WI

Change the Weather History Date:

Tuesday, November 20, 2012

  Actual Average Record
Temperature  
Mean Temperature 43 °F -  
Max Temperature 55 °F 43 °F 66 °F (2003)
Min Temperature 31 °F 29 °F 11 °F (1964)
Degree Days  
Heating Degree Days 22    
Moisture  
Dew Point 40 °F    
Average Humidity 84    
Maximum Humidity 100    
Minimum Humidity 62    
Precipitation  
Precipitation 0.00 in - - ()
Sea Level Pressure  
Sea Level Pressure 30.10 in    
Wind  
Wind Speed 1 mph (NW)    
Max Wind Speed 7 mph    
Max Gust Speed -    
Visibility 6 miles    
Events Fog    
Averages and records for this station are not official NWS values.
T = Trace of Precipitation, MM = Missing Value Source: NWS Daily Summary

Daily Weather History Graph

Daily Weather History Graph

Search for Another Location

Airport:

Trip Planner

Search our weather history database for the weather conditions in past years. The results will help you decide how hot, cold, wet, or windy it might be!

Date:

Astronomy

Nov. 20, 2012 Rise Set
Actual Time 6:54 AM CST 4:26 PM CST
Civil Twilight 6:23 AM CST 4:57 PM CST
Nautical Twilight 5:48 AM CST 5:32 PM CST
Astronomical Twilight 5:14 AM CST 6:06 PM CST
Moon 12:23 PM CST (11/20) No Moon Set
Length of Visible Light 10h 33m
Length of Day
9h 31m
First Quarter, 51% of the Moon is Illuminated
Nov 20
First Quarter
Nov 28
Full
Dec 6
Last Quarter
Dec 13
New
Dec 19
First Quarter

Hourly Weather History & Observations

Time (CST) Temp. Windchill Dew Point Humidity Pressure Visibility Wind Dir Wind Speed Gust Speed Precip Events Conditions
12:15 AM 46.6 °F - 42.3 °F 85% 30.07 in 10.0 mi Calm Calm - N/A   Overcast
12:35 AM 46.4 °F 44.3 °F 42.6 °F 87% 30.06 in 7.0 mi South 4.6 mph - N/A   Overcast
12:55 AM 45.9 °F - 43.3 °F 91% 30.06 in 7.0 mi Calm Calm - N/A   Overcast
1:15 AM 45.9 °F - 43.2 °F 90% 30.07 in 7.0 mi Calm Calm - N/A   Overcast
1:35 AM 45.7 °F - 43.7 °F 93% 30.07 in 5.0 mi Calm Calm - N/A   Overcast
1:55 AM 45.5 °F - 43.3 °F 92% 30.07 in 7.0 mi Calm Calm - N/A   Overcast
2:35 AM 45.5 °F - 43.0 °F 91% 30.07 in 7.0 mi Calm Calm - N/A   Overcast
6:15 AM 44.8 °F - 43.2 °F 94% 30.08 in 4.0 mi Calm Calm - N/A   Overcast
6:35 AM 44.8 °F - 43.2 °F 94% 30.08 in 4.0 mi Calm Calm - N/A   Overcast
6:55 AM 44.4 °F - 43.2 °F 95% 30.09 in 4.0 mi Calm Calm - N/A   Overcast
7:15 AM 44.1 °F - 43.0 °F 96% 30.09 in 2.5 mi Calm Calm - N/A   Overcast
7:55 AM 43.5 °F - 43.5 °F 100% 30.10 in 1.5 mi Calm Calm - N/A   Overcast
8:35 AM 46.6 °F - 44.6 °F 93% 30.10 in 3.0 mi Calm Calm - N/A   Scattered Clouds
9:15 AM 48.6 °F - 44.8 °F 87% 30.09 in 5.0 mi NW 5.8 mph - N/A   Clear
9:35 AM 48.9 °F - 44.1 °F 83% 30.09 in 5.0 mi NNW 6.9 mph - N/A   Haze
9:55 AM 50.0 °F - 44.2 °F 81% 30.09 in 7.0 mi NW 5.8 mph - N/A   Clear
10:15 AM 50.5 °F - 43.9 °F 78% 30.10 in 7.0 mi NW 5.8 mph - N/A   Clear
10:55 AM 52.0 °F - 43.3 °F 72% 30.10 in 7.0 mi NW 5.8 mph - N/A   Clear
11:15 AM 52.5 °F - 43.0 °F 70% 30.09 in 7.0 mi NNW 4.6 mph - N/A   Clear
11:35 AM 52.5 °F - 42.6 °F 69% 30.09 in 10.0 mi North 3.5 mph - N/A   Clear
11:55 AM 53.2 °F - 42.4 °F 67% 30.09 in 10.0 mi Calm Calm - N/A   Clear
12:35 PM 54.0 °F - 42.8 °F 66% 30.08 in 10.0 mi WNW 5.8 mph - N/A   Clear
1:15 PM 54.7 °F - 42.6 °F 64% 30.08 in 10.0 mi NW 4.6 mph - N/A   Clear
1:35 PM 55.0 °F - 42.8 °F 63% 30.08 in 10.0 mi Calm Calm - N/A   Clear
1:55 PM 55.4 °F - 42.4 °F 62% 30.08 in 10.0 mi West 6.9 mph - N/A   Clear
2:15 PM 55.0 °F - 42.6 °F 63% 30.08 in 10.0 mi NW 5.8 mph - N/A   Clear
2:35 PM 55.2 °F - 43.0 °F 63% 30.08 in 10.0 mi NW 4.6 mph - N/A   Clear
2:55 PM 54.7 °F - 42.8 °F 64% 30.09 in 10.0 mi NNW 3.5 mph - N/A   Clear
3:35 PM 53.6 °F - 42.8 °F 67% 30.09 in 10.0 mi NNW 3.5 mph - N/A   Clear
3:55 PM 53.1 °F - 42.4 °F 67% 30.10 in 10.0 mi Calm Calm - N/A   Clear
4:15 PM 52.3 °F - 42.4 °F 69% 30.10 in 10.0 mi Calm Calm - N/A   Clear
5:15 PM 44.2 °F - 40.5 °F 87% 30.12 in 2.5 mi Calm Calm - N/A   Clear
5:35 PM 42.1 °F - 38.7 °F 88% 30.12 in 7.0 mi Calm Calm - N/A   Clear
5:55 PM 41.7 °F - 38.8 °F 89% 30.12 in 5.0 mi Calm Calm - N/A   Clear
6:15 PM 39.0 °F - 37.0 °F 93% 30.13 in 7.0 mi Calm Calm - N/A   Clear
6:35 PM 37.9 °F - 34.7 °F 88% 30.12 in 7.0 mi Calm Calm - N/A   Clear
7:35 PM 39.2 °F - 36.7 °F 91% 30.14 in 7.0 mi Calm Calm - N/A   Clear
7:55 PM 34.3 °F - 33.1 °F 95% 30.14 in 3.0 mi Calm Calm - N/A   Clear
8:15 PM 35.2 °F - 34.3 °F 97% 30.15 in 5.0 mi Calm Calm - N/A   Clear
8:35 PM 33.8 °F - 32.4 °F 94% 30.15 in 3.0 mi Calm Calm - N/A   Clear
8:55 PM 35.2 °F - 34.5 °F 97% 30.14 in 3.0 mi Calm Calm - N/A   Clear
9:15 PM 34.7 °F - 33.4 °F 95% 30.14 in 2.0 mi Calm Calm - N/A   Clear
9:35 PM 33.1 °F - 31.8 °F 95% 30.14 in 4.0 mi Calm Calm - N/A   Clear
9:55 PM 33.3 °F - 33.1 °F 99% 30.14 in 0.8 mi Calm Calm - N/A   Mist
10:15 PM 32.9 °F - 31.6 °F 95% 30.15 in 4.0 mi Calm Calm - N/A   Clear
10:35 PM 31.8 °F - 30.7 °F 96% 30.15 in 1.8 mi Calm Calm - N/A   Scattered Clouds
11:15 PM 32.9 °F - 32.4 °F 98% 30.15 in 1.2 mi Calm Calm - N/A   Overcast
11:35 PM 31.8 °F - 31.6 °F 99% 30.16 in 0.5 mi Calm Calm - N/A Fog Fog